Regional Weather Roundup
Issued by NWS Jackson, KY

Home | Current Version | Previous Version | Text Only | Print | Product List | Glossary On
Versions: 1 2 3 4 5 6 7 8 9 10 11 12 13 14 15 16 17 18 19 20 21 22 23 24 25 26 27 28 29 30 31 32 33 34 35 36 37 38 39 40 41 42 43 44 45 46 47 48 49 50
000
ASUS43 KJKL 230410
RWRJKL

EAST KENTUCKY HOURLY WEATHER ROUNDUP
NATIONAL WEATHER SERVICE JACKSON KY
1200 AM EDT TUE MAY 23 2017

NOTE: "FAIR" INDICATES FEW OR NO CLOUDS BELOW 12,000 FEET WITH
NO SIGNIFICANT WEATHER AND/OR OBSTRUCTIONS TO VISIBILITY.

* THESE REPORTS ARE NOT UNDER NWS QUALITY CONTROL AND MAY NOT
  REPORT WEATHER SUCH AS PRECIPITATION AND FOG.

KYZ079-080-083-085-087-088-110-112-115-119-120-230500
...EASTERN KENTUCKY...

CITY           SKY/WX    TMP DP  RH WIND       PRES   REMARKS
JACKSON        CLOUDY    58  51  78 CALM      30.00F
LONDON         CLOUDY    59  51  75 NE5       29.99S
SOMERSET*      CLOUDY    57  52  82 E3        30.00F
MONTICELLO*    CLOUDY    59  56  89 VRB5      30.00F
WILLIAMSBURG*  CLOUDY    57  54  88 CALM      29.99S
MIDDLESBORO*   CLOUDY    59  56  90 CALM      29.99S
HARLAN APT*    PTCLDY    57  54  88 CALM      30.00S
PIKE CO APT*     N/A     58  55  89 N6        30.00F
BIG SANDY APT* MOCLDY    55  54  97 NE6       30.00F
MOREHEAD APT*  CLOUDY    57  50  77 NE5       30.02F
$$

KYZ035-036-041-042-044-050-067-078-099-230500
...CENTRAL KENTUCKY...

CITY           SKY/WX    TMP DP  RH WIND       PRES   REMARKS
MT STERLING*   CLOUDY    55  52  88 CALM      30.02F
FLEMING/MASON* CLOUDY    56  52  86 E3        30.02F
DANVILLE*      CLOUDY    55  52  88 CALM      30.01F
LEXINGTON      CLOUDY    59  49  69 E6        30.00F
FRANKFORT      CLOUDY    58  51  78 CALM      29.99F
LOUISVILLE     CLOUDY    63  50  62 SE3       29.98F
LEBANON*         N/A     59  52  77 CALM      30.00F
GLASGOW*       CLOUDY    61  54  77 NE5       29.97F
BOWLING GREEN  CLOUDY    63  56  78 NE5       29.97F
$$

KYZ091>093-OHZ055-061-077-WVZ005-015-034-035-042-230500
...SOUTHERN OHIO/WEST VIRGINIA...

CITY           SKY/WX    TMP DP  RH WIND       PRES   REMARKS
COVINGTON      CLOUDY    56  47  71 CALM      30.00F
COLUMBUS       CLOUDY    57  48  72 SE3       30.02F
DAYTON         MOCLDY    59  46  62 S8        30.02F
WILMINGTON     CLOUDY    55  48  77 SE3       30.01F
HUNTINGTON     CLOUDY    55  52  89 SE3       30.01F
CHARLESTON     CLOUDY    55  52  89 CALM      30.01F
PINEVILLE*     CLOUDY    54  53  97 MISG      30.06F
BECKLEY        CLOUDY    52  50  93 SE3       30.05F
BLUEFIELD      CLOUDY    56  50  80 E3        30.05F
LOGAN CO APT*    N/A     57  54  88 CALM      30.01F
$$

VAZ002-007-008-TNZ017-027-036-066-071-230500
...SOUTHWEST VIRGINIA/EAST TENNESSEE...

CITY           SKY/WX    TMP DP  RH WIND       PRES   REMARKS
WISE*          PTCLDY    55  55 100 NE3       30.04F
JONESVILLE*      N/A     59  57  94 CALM      30.00S
ABINGDON*      CLOUDY    63  57  82 E5        30.00F
BRISTOL        CLOUDY    63  59  87 CALM      29.97F
MORRISTOWN*    PTCLDY    66  63  88 CALM      29.95S
SEVIERVILLE*   MOCLDY    64  63  94 CALM      29.94F
KNOXVILLE      CLOUDY    68  60  75 N3        29.94S
LAFOLLETTE*    CLEAR     61  57  88 CALM      30.00S
OAK RIDGE      CLOUDY    65  56  72 CALM      29.96F
CROSSVILLE     CLOUDY    60  55  83 N5        29.99F
NASHVILLE      CLOUDY    66  55  67 N6        29.96F
$$

...KEY TO REMARKS...
VSB - VISIBILITY IN MILES
WCI - WIND CHILL INDEX
HX  - HEAT INDEX

$$



USA.gov is the U.S. government's official web portal to all federal, state and local government web resources and services.